Weather History for Clarksville, TN

Change the Weather History Date:

Friday, November 8, 2013

  Actual Average Record
Temperature  
Mean Temperature 43 °F -  
Max Temperature 57 °F - 79 °F (1980)
Min Temperature 29 °F - 19 °F (1971)
Degree Days  
Heating Degree Days 22    
Month to date heating degree days 113  
Since 1 July heating degree days 341  
Cooling Degree Days 0    
Month to date cooling degree days 0  
Moisture  
Dew Point 29 °F    
Average Humidity 65    
Maximum Humidity 100    
Minimum Humidity 30    
Precipitation  
Precipitation 0.00 in - 2.66 in (1957)
Month to date precipitation 0.35  
Sea Level Pressure  
Sea Level Pressure 30.34 in    
Wind  
Wind Speed 3 mph (ESE)    
Max Wind Speed 9 mph    
Max Gust Speed 16 mph    
Visibility 8 miles    
Events Fog    
T = Trace of Precipitation, MM = Missing Value Source: NWS Daily Summary

Daily Weather History Graph

Daily Weather History Graph

Search for Another Location

Airport:

Trip Planner

Search our weather history database for the weather conditions in past years. The results will help you decide how hot, cold, wet, or windy it might be!

Date:

Astronomy

Nov. 08, 2013 Rise Set
Actual Time 6:20 AM CST 4:45 PM CST
Civil Twilight 5:53 AM CST 5:13 PM CST
Nautical Twilight 5:22 AM CST 5:43 PM CST
Astronomical Twilight 4:52 AM CST 6:14 PM CST
Moon 11:15 AM CST (11/8) 10:05 PM CST (11/8)
Length of Visible Light 11h 19m
Length of Day
10h 25m
Waxing Crescent, 33% of the Moon is Illuminated
Nov 8
Waxing Crescent
Nov 9
First Quarter
Nov 17
Full
Nov 25
Last Quarter
Dec 2
New

Hourly Weather History & Observations

Time (CST) Temp. Windchill Dew Point Humidity Pressure Visibility Wind Dir Wind Speed Gust Speed Precip Events Conditions
12:52 AM 33.1 °F - 30.9 °F 92% 30.34 in 10.0 mi Calm Calm - N/A   Clear
1:52 AM 32.0 °F - 30.0 °F 92% 30.35 in 10.0 mi Calm Calm - N/A   Clear
2:52 AM 32.0 °F - 30.0 °F 92% 30.35 in 8.0 mi Calm Calm - N/A   Clear
3:52 AM 30.9 °F - 28.9 °F 92% 30.36 in 10.0 mi Calm Calm - N/A   Clear
4:52 AM 30.9 °F - 28.9 °F 92% 30.37 in 7.0 mi Calm Calm - N/A   Clear
5:52 AM 28.9 °F - 28.0 °F 96% 30.38 in 5.0 mi Calm Calm - N/A   Clear
5:58 AM 30.2 °F - 28.4 °F 93% 30.37 in 1.2 mi Calm Calm - N/A   Clear
6:05 AM 28.4 °F - 28.4 °F 100% 30.37 in 0.2 mi Calm Calm - N/A Fog Light Freezing Fog
6:31 AM 30.2 °F - 28.4 °F 93% 30.38 in 1.0 mi Calm Calm - N/A   Clear
6:38 AM 30.2 °F - 28.4 °F 93% 30.38 in 0.5 mi Calm Calm - N/A Fog Light Freezing Fog
6:46 AM 30.2 °F - 30.2 °F 100% 30.39 in 2.0 mi Calm Calm - N/A   Clear
6:52 AM 30.9 °F - 30.0 °F 96% 30.40 in 8.0 mi Calm Calm - N/A   Clear
7:52 AM 35.1 °F - 33.1 °F 92% 30.42 in 10.0 mi Calm Calm - N/A   Clear
8:52 AM 44.1 °F - 37.0 °F 76% 30.41 in 10.0 mi Calm Calm - N/A   Clear
9:52 AM 48.0 °F - 33.1 °F 56% 30.42 in 10.0 mi ESE 3.5 mph - N/A   Clear
10:52 AM 51.1 °F - 30.0 °F 44% 30.40 in 10.0 mi ESE 5.8 mph - N/A   Clear
11:52 AM 52.0 °F - 28.9 °F 41% 30.38 in 10.0 mi East 5.8 mph - N/A   Clear
12:52 PM 55.0 °F - 27.0 °F 34% 30.34 in 10.0 mi SE 6.9 mph - N/A   Clear
1:52 PM 55.9 °F - 26.1 °F 32% 30.33 in 10.0 mi Variable 3.5 mph - N/A   Clear
2:52 PM 55.9 °F - 25.0 °F 30% 30.31 in 10.0 mi Variable 3.5 mph - N/A   Clear
3:52 PM 54.0 °F - 27.0 °F 35% 30.29 in 10.0 mi SE 4.6 mph - N/A   Clear
4:52 PM 51.1 °F - 25.0 °F 36% 30.28 in 10.0 mi East 4.6 mph - N/A   Clear
5:52 PM 45.0 °F 42.6 °F 28.0 °F 52% 30.27 in 10.0 mi ESE 4.6 mph - N/A   Clear
6:52 PM 43.0 °F 39.5 °F 28.0 °F 56% 30.27 in 10.0 mi SE 5.8 mph - N/A   Clear
7:52 PM 44.1 °F 42.5 °F 28.0 °F 53% 30.25 in 10.0 mi SE 3.5 mph - N/A   Clear
8:52 PM 41.0 °F - 30.0 °F 65% 30.26 in 10.0 mi Calm Calm - N/A   Clear
9:52 PM 41.0 °F 39.0 °F 30.0 °F 65% 30.26 in 10.0 mi ESE 3.5 mph - N/A   Clear
10:52 PM 41.0 °F 39.0 °F 28.9 °F 62% 30.25 in 10.0 mi SE 3.5 mph - N/A   Clear
11:52 PM 39.0 °F 36.8 °F 30.0 °F 70% 30.25 in 10.0 mi ESE 3.5 mph - N/A   Clear